User: anonymous   Login
Location: Unspecified
(0.0000°N, 0.0000°E)
Time: 14:13:45
(UTC+01:00)
Language:

NOSS 2-2 (E) - Orbit

View from above orbital plane
View from above orbital plane
View from above satellite
View from above satellite

Ground track
Ground track

The orbit data is extracted from the following two-line orbital elements,

1 21809U 91076E   17010.21976475 0.00000070  00000-0  24791-4 0    00
2 21809  63.3540 146.5229 0729000  20.9862 339.0138 13.41315517    05
Epoch (UTC): 10 January 2017 05:16:27
Eccentricity: 0.0729000
inclination: 63.3540°
perigee height: 559 km
apogee height: 1650 km
right ascension of ascending node: 146.5229°
argument of perigee: 20.9862°
revolutions per day: 13.41315517
mean anomaly at epoch: 339.0138°
orbit number at epoch: 0

The dashed part of the orbit path shows where the satellite is in the earth's shadow,  

DLR